Regional Weather Roundup
Issued by NWS

Home | Current Version | Previous Version | Graphics & Text | Print | Product List | Glossary Off
Versions: 1 2 3 4 5 6 7 8 9 10 11 12 13 14 15 16 17 18 19 20 21 22 23 24 25 26 27 28 29 30 31 32 33 34 35 36 37 38 39 40 41 42 43 44 45 46 47 48 49 50

000
ASUS43 KDMX 300408
RWRIA

WEATHER ROUNDUP FOR IOWA
NATIONAL WEATHER SERVICE DES MOINES IA
1100 PM CDT SUN MAY 29 2016

NOTE: "FAIR" INDICATES FEW OR NO CLOUDS BELOW 12,000 FEET WITH NO
SIGNIFICANT WEATHER AND/OR OBSTRUCTIONS TO VISIBILITY.

* - THESE STATIONS ARE NOT NWS STATIONS...THUS NOT UNDER NWS
QUALITY CONTROL.  THEY ALSO DO NOT REPORT WEATHER SUCH
AS PRECIPITATION OR FOG.

IAZ001>003-012>014-020>022-031>034-043>046-300500-
   NORTHWEST IOWA

CITY           SKY/WX    TMP DP  RH WIND       PRES   REMARKS
CARROLL *      CLEAR     68  61  77 CALM      30.03S
CHEROKEE *     CLOUDY    59  57  94 N5        30.04S
DENISON *      CLEAR     66  59  77 CALM      30.01S
LE MARS *      CLEAR     64  59  82 N5        30.03F
ORANGE CITY *  CLEAR     70  52  52 CALM      30.04F
SHELDON *      CLEAR     63  57  82 SE3       30.03S
SIOUX CITY     CLOUDY    72  55  55 E8        30.01S
SPENCER        CLEAR     61  52  72 SW5       30.05R
STORM LAKE *   CLEAR     68  52  56 NE6       30.05S
$$

IAZ055>058-069>071-079>083-090>094-300500-
   SOUTHWEST IOWA

CITY           SKY/WX    TMP DP  RH WIND       PRES   REMARKS
ATLANTIC *     CLEAR     66  63  88 CALM      30.03R
AUDUBON *      CLEAR     64  61  88 CALM      30.05R
CLARINDA *       N/A     70  64  83 MISG      30.05R
COUNCIL BLFS * PTCLDY    72  61  68 S8        30.03R
CRESTON *      CLEAR     72  61  68 SE5       30.06R
HARLAN  *      CLEAR     68  63  83 CALM      30.05S
LAMONI         CLOUDY    72  62  71 S7        30.05R
RED OAK *      MOCLDY    70  66  88 CALM      30.03R
SHENANDOAH *   CLEAR     73  64  73 SW8       30.03R
$$

IAZ047>049-059>061-072>074-084-300500-
   CENTRAL IOWA

CITY           SKY/WX    TMP DP  RH WIND       PRES   REMARKS
AMES           CLOUDY    66  59  78 N8        30.02R
ANKENY *       CLEAR     64  61  88 CALM      30.02S
BOONE *        CLEAR     70  57  64 NW6       30.03R
CHARITON *     CLEAR     70  63  78 S5        30.05R
DES MOINES     CLOUDY    71  57  61 S6        30.02R
GRINNELL*      CLEAR     70  57  64 S6        30.04R
KNOXVILLE *    CLEAR     70  61  73 S6        30.02S
MARSHALLTOWN   PTCLDY    69  58  67 NW5       30.01R
NEWTON *       CLEAR     66  61  82 S7        30.02R
PELLA *        CLOUDY    70  59  68 S3        30.04R
PERRY *          N/A     73  54  49 CALM      30.03S
$$

IAZ004>006-015-016-023>025-035-036-300500-
   NORTH CENTRAL IOWA

CITY           SKY/WX    TMP DP  RH WIND       PRES   REMARKS
ALGONA *       CLEAR     64  54  68 CALM      30.05R
CLARION *      CLEAR     64  52  63 NW5       30.03S
ESTHERVILLE    CLEAR     61  56  83 W5        30.04R
FORT DODGE *   CLEAR     63  48  59 CALM      30.04S
MASON CITY     CLEAR     61  53  75 W7        30.04R
FOREST CITY *  CLEAR     55  54  94 CALM      30.04R
WEBSTER CITY * CLEAR     64  57  77 W3        30.02S
IOWA FALLS *     N/A     66  61  82 CALM      30.04S
$$

IAZ007>011-017>019-026>030-037>042-050>054-066-300500-
   NORTHEAST IOWA

CITY           SKY/WX    TMP DP  RH WIND       PRES   REMARKS
CEDAR RAPIDS   CLEAR     67  60  78 SW5       30.01R
CHARLES CITY * CLEAR     66  55  68 W8        30.02S
CLINTON *      PTCLDY    69  59  70 S5        30.03R
DECORAH *      CLEAR     64  59  82 CALM      30.01R
DUBUQUE        PTCLDY    63  58  83 SW3       30.02R
MONTICELLO *   PTCLDY    64  61  88 CALM      30.01S
OELWEIN *      PTCLDY    68  59  73 SW6       30.02S
WATERLOO       CLEAR     66  60  81 CALM      30.00S
$$

IAZ064-065-067-068-078-300500-
   EAST CENTRAL IOWA

CITY           SKY/WX    TMP DP  RH WIND       PRES   REMARKS
DAVENPORT      MOCLDY    71  57  61 S6        30.03R
IOWA CITY      CLEAR     68  58  70 CALM      30.03R
MT. PLEASANT * CLEAR     70  63  78 S5        30.04S
MUSCATINE *    CLEAR     68  59  73 S6        30.02F
QUAD CITIES    CLEAR     71  56  58 SW7       30.02R
$$

IAZ062-063-075>077-085>089-095>099-300500-
   SOUTHEAST IOWA

CITY           SKY/WX    TMP DP  RH WIND       PRES   REMARKS
BURLINGTON     CLEAR     67  63  87 CALM      30.04R
FAIRFIELD *      N/A    N/A N/A N/A MISG        N/A
FORT MADISON * CLEAR     66  61  82 S5        30.05S
KEOKUK *       CLEAR     70  61  73 S3        30.04R
OSKALOOSA *      N/A     68  59  73 S6        30.04R
OTTUMWA        CLOUDY    70  60  70 S6        30.04R
WASHINGTON *   CLEAR     66 N/A N/A S6        30.04F
$$

ABBREVIATIONS USED IN REMARKS
   TC - TEMPERATURES IN CELSIUS
  WCI - WIND CHILL INDEX
   HX - HEAT INDEX
  VSB - VISIBILITY
$$





USA.gov is the U.S. government's official web portal to all federal, state and local government web resources and services.